sat.trackr.live / text

‹ back to catalog

STARLINK-32101

NORAD 60447 · 2024-144Y

PAYLOAD ACTIVE UNKNOWN

§ Identity

Operator
Country
US
Launch date
2024-08-12
Launch site
AFETR
Launch vehicle
Mass (kg)
RCS (m²)

Purposes: comms

External: N2YO · Heavens-Above · Gunter

§ Orbital elements

Epoch: 2026-09-21T16:25:00.897888Z

Period
93.85 min
Inclination
53.1593°
Eccentricity
0.0000955
Mean motion
15.34395159 rev/d
Perigee alt
462.1 km
Apogee alt
463.4 km
Semi-major
6,840.9 km
B*
2.9026e-6
RAAN
22.0112°
Arg perigee
57.7494°
Mean anomaly
302.3601°
Rev number
11,938

§ Raw data

STARLINK-321011 60447U 24144Y   26264.68403817 -.00000278  00000+0  29026-5 0  99942 60447  53.1593  22.0112 0000955  57.7494 302.3601 15.34395159119384

JSON: /api/v1/satellites/60447 · /tle

For live sub-satellite position, see the globe view (requires WebGL).

§ Visibility from observer

Set your observer location to see the next 7 days of passes ≥ 10°. The values pass through the URL so the page stays shareable.

No JS? Fill the form by hand. The geolocation button needs JavaScript.